Location: Bathurst
(33.4193°S, 149.5775°E)
Time: 21:59:01
(UTC+10:00)

Vanguard 3 - Pass Details

Date: 25 June 2021
Orbit: 508 x 3261 km, 33.4° (Epoch: 25 July)

Event Time Altitude Azimuth Distance (km) Brightness Sun altitude
Rises 21:24:46 0° 257° (WSW) 7,120 12.5 -53.7°
Reaches altitude 10° 21:29:27 10° 258° (WSW) 6,190 12.0 -54.7°
Enters shadow 21:44:58 59° 279° (W) 3,415 10.1 -57.9°
